| time (UTC) | temp C | wind direction | speed KPH | gust KPH | rain 1hr cm | rain 24hr cm | rain mn cm | humidity % | barometer mb |
| 20260504081511 | 6 | 315 | 6.4 | 6.4 | 0.00 | 0.00 | 0.00 | 54 | 1015.7 |
| 20260504080958 | 7 | 310 | 6.4 | 6.4 | 0.00 | 0.00 | 0.00 | 53 | 1015.8 |
| 20260504080454 | 7 | 327 | 3.2 | 6.4 | 0.00 | 0.00 | 0.00 | 53 | 1015.7 |
| 20260504070159 | 9 | 24 | 3.2 | 4.8 | 0.00 | 0.00 | 0.00 | 48 | 1015.8 |
| 20260504050338 | 11 | 352 | 19.3 | 27.4 | 0.00 | 0.00 | 0.00 | 48 | 1014.9 |
| 20260504045836 | 11 | 352 | 17.7 | 22.5 | 0.00 | 0.00 | 0.00 | 47 | 1014.8 |
| 20260504045337 | 11 | 0 | 14.5 | 25.7 | 0.00 | 0.00 | 0.00 | 47 | 1014.9 |
| 20260504044836 | 11 | 9 | 17.7 | 25.7 | 0.00 | 0.00 | 0.00 | 47 | 1014.8 |
| 20260504044332 | 11 | 9 | 17.7 | 25.7 | 0.00 | 0.00 | 0.00 | 45 | 1014.9 |
| 20260504043830 | 11 | 0 | 17.7 | 29.0 | 0.00 | 0.00 | 0.00 | 45 | 1014.9 |
| 20260504043325 | 11 | 5 | 17.7 | 29.0 | 0.00 | 0.00 | 0.00 | 45 | 1014.8 |
| 20260504042821 | 11 | 0 | 22.5 | 29.0 | 0.00 | 0.00 | 0.00 | 45 | 1014.7 |
| 20260504042320 | 11 | 352 | 20.9 | 32.2 | 0.00 | 0.00 | 0.00 | 44 | 1014.7 |
| 20260504041822 | 11 | 0 | 22.5 | 32.2 | 0.00 | 0.00 | 0.00 | 45 | 1014.6 |
| 20260504041321 | 12 | 352 | 20.9 | 32.2 | 0.00 | 0.00 | 0.00 | 44 | 1014.6 |
| 20260504040819 | 12 | 0 | 17.7 | 29.0 | 0.00 | 0.00 | 0.00 | 43 | 1014.4 |
| 20260504040315 | 12 | 17 | 22.5 | 29.0 | 0.00 | 0.00 | 0.00 | 42 | 1014.1 |
| 20260504035814 | 12 | 32 | 14.5 | 24.1 | 0.00 | 0.00 | 0.00 | 43 | 1013.9 |
| 20260504035312 | 12 | 352 | 20.9 | 29.0 | 0.00 | 0.00 | 0.00 | 42 | 1014.1 |
| 20260504035041 | 12 | 352 | 19.3 | 35.4 | 0.00 | 0.00 | 0.00 | 41 | 1013.9 |
| 20260504034312 | 12 | 9 | 19.3 | 35.4 | 0.00 | 0.00 | 0.00 | 41 | 1013.9 |
| 20260504033810 | 12 | 9 | 20.9 | 32.2 | 0.00 | 0.00 | 0.00 | 39 | 1013.8 |
| 20260504033304 | 12 | 9 | 20.9 | 32.2 | 0.00 | 0.00 | 0.00 | 38 | 1013.7 |
| 20260504033019 | 12 | 5 | 19.3 | 29.0 | 0.00 | 0.00 | 0.00 | 38 | 1013.5 |
| 20260504032524 | 12 | 0 | 14.5 | 27.4 | 0.00 | 0.00 | 0.00 | 38 | 1013.4 |
| 20260504031757 | 13 | 0 | 11.3 | 24.1 | 0.00 | 0.00 | 0.00 | 37 | 1013.1 |
| 20260504031253 | 13 | 22 | 9.7 | 24.1 | 0.00 | 0.00 | 0.00 | 37 | 1012.9 |
| 20260504031015 | 13 | 23 | 14.5 | 25.7 | 0.00 | 0.00 | 0.00 | 37 | 1012.9 |
| 20260504030249 | 13 | 40 | 11.3 | 25.7 | 0.00 | 0.00 | 0.00 | 36 | 1012.6 |
| 20260504025747 | 13 | 38 | 12.9 | 25.7 | 0.00 | 0.00 | 0.00 | 36 | 1012.6 |
| 20260504025253 | 13 | 5 | 12.9 | 25.7 | 0.00 | 0.00 | 0.00 | 36 | 1012.4 |
| 20260504024755 | 13 | 22 | 20.9 | 29.0 | 0.00 | 0.00 | 0.00 | 35 | 1012.3 |
| 20260504024246 | 13 | 36 | 19.3 | 29.0 | 0.00 | 0.00 | 0.00 | 35 | 1012.1 |
| 20260504024020 | 13 | 49 | 17.7 | 29.0 | 0.00 | 0.00 | 0.00 | 35 | 1012.1 |
| 20260504023246 | 14 | 26 | 16.1 | 29.0 | 0.00 | 0.00 | 0.00 | 35 | 1011.9 |
| 20260504023003 | 14 | 350 | 20.9 | 29.0 | 0.00 | 0.00 | 0.00 | 34 | 1011.7 |
| 20260504022241 | 14 | 32 | 17.7 | 33.8 | 0.00 | 0.00 | 0.00 | 34 | 1011.6 |
| 20260504021739 | 14 | 16 | 19.3 | 35.4 | 0.00 | 0.00 | 0.00 | 34 | 1011.5 |
| 20260504021234 | 14 | 10 | 22.5 | 35.4 | 0.00 | 0.00 | 0.00 | 33 | 1011.5 |
| 20260504020727 | 15 | 40 | 17.7 | 30.6 | 0.00 | 0.00 | 0.00 | 33 | 1011.4 |
| 20260504020229 | 15 | 344 | 16.1 | 30.6 | 0.00 | 0.00 | 0.00 | 33 | 1011.2 |
| 20260504015729 | 15 | 44 | 19.3 | 37.0 | 0.00 | 0.00 | 0.00 | 33 | 1011.3 |
| 20260504015226 | 15 | 0 | 20.9 | 37.0 | 0.00 | 0.00 | 0.00 | 33 | 1011.0 |
| 20260504014724 | 15 | 17 | 20.9 | 35.4 | 0.00 | 0.00 | 0.00 | 33 | 1011.0 |
| 20260504014716 | 15 | 352 | 20.9 | 33.8 | 0.00 | 0.00 | 0.00 | 33 | 1010.8 |
| 20260504013719 | 15 | 53 | 20.9 | 33.8 | 0.00 | 0.00 | 0.00 | 33 | 1010.8 |
| 20260504013218 | 16 | 0 | 14.5 | 35.4 | 0.00 | 0.00 | 0.00 | 32 | 1010.8 |
| 20260504012725 | 16 | 11 | 19.3 | 35.4 | 0.00 | 0.00 | 0.00 | 32 | 1010.8 |
| 20260504012213 | 16 | 348 | 20.9 | 38.6 | 0.00 | 0.00 | 0.00 | 32 | 1010.7 |
| 20260504011709 | 16 | 0 | 22.5 | 38.6 | 0.00 | 0.00 | 0.00 | 31 | 1010.6 |
| 20260504011202 | 16 | 30 | 19.3 | 38.6 | 0.00 | 0.00 | 0.00 | 31 | 1010.5 |
| 20260504010701 | 16 | 5 | 22.5 | 38.6 | 0.00 | 0.00 | 0.00 | 31 | 1010.4 |
| 20260504010157 | 17 | 22 | 20.9 | 33.8 | 0.00 | 0.00 | 0.00 | 30 | 1010.4 |
| 20260504005928 | 17 | 17 | 17.7 | 37.0 | 0.00 | 0.00 | 0.00 | 30 | 1010.5 |
| 20260504005159 | 17 | 5 | 19.3 | 38.6 | 0.00 | 0.00 | 0.00 | 30 | 1010.3 |
| 20260504004653 | 18 | 16 | 24.1 | 40.2 | 0.00 | 0.00 | 0.00 | 30 | 1010.2 |
| 20260504004419 | 18 | 41 | 22.5 | 40.2 | 0.00 | 0.00 | 0.00 | 30 | 1010.2 |
| 20260504003918 | 18 | 22 | 20.9 | 33.8 | 0.00 | 0.00 | 0.00 | 30 | 1010.0 |
| 20260504003144 | 18 | 20 | 20.9 | 38.6 | 0.00 | 0.00 | 0.00 | 30 | 1010.0 |
| 20260504002645 | 19 | 352 | 19.3 | 38.6 | 0.00 | 0.00 | 0.00 | 29 | 1010.0 |
| 20260504002407 | 19 | 40 | 20.9 | 32.2 | 0.00 | 0.00 | 0.00 | 29 | 1009.9 |
| 20260504001858 | 19 | 22 | 16.1 | 30.6 | 0.00 | 0.00 | 0.00 | 30 | 1009.8 |
| 20260504001135 | 19 | 9 | 16.1 | 32.2 | 0.00 | 0.00 | 0.00 | 29 | 1009.7 |
| 20260504000630 | 20 | 39 | 20.9 | 38.6 | 0.00 | 0.00 | 0.00 | 28 | 1009.6 |
| 20260504000129 | 20 | 334 | 22.5 | 38.6 | 0.00 | 0.00 | 0.00 | 28 | 1009.6 |
| 20260503235625 | 20 | 350 | 27.4 | 38.6 | 0.00 | 0.00 | 0.00 | 29 | 1009.6 |
| 20260503235124 | 20 | 5 | 24.1 | 35.4 | 0.00 | 0.00 | 0.00 | 29 | 1009.4 |
| 20260503234622 | 20 | 5 | 25.7 | 33.8 | 0.00 | 0.00 | 0.00 | 28 | 1009.3 |
| 20260503234617 | 20 | 18 | 16.1 | 32.2 | 0.00 | 0.00 | 0.00 | 28 | 1009.2 |
| 20260503233840 | 20 | 34 | 20.9 | 32.2 | 0.00 | 0.00 | 0.00 | 29 | 1009.0 |
| 20260503233113 | 20 | 16 | 20.9 | 32.2 | 0.00 | 0.00 | 0.00 | 28 | 1009.2 |
| 20260503232604 | 20 | 24 | 17.7 | 35.4 | 0.00 | 0.00 | 0.00 | 29 | 1009.2 |
| 20260503232106 | 20 | 352 | 19.3 | 35.4 | 0.00 | 0.00 | 0.00 | 29 | 1009.0 |
| 20260503231606 | 20 | 26 | 20.9 | 33.8 | 0.00 | 0.00 | 0.00 | 30 | 1009.2 |
| 20260503231104 | 20 | 5 | 25.7 | 37.0 | 0.00 | 0.00 | 0.00 | 30 | 1009.0 |
| 20260503230555 | 20 | 351 | 29.0 | 43.5 | 0.00 | 0.00 | 0.00 | 30 | 1009.0 |
| 20260503230055 | 20 | 12 | 30.6 | 43.5 | 0.00 | 0.00 | 0.00 | 30 | 1009.2 |
| 20260503225552 | 20 | 348 | 22.5 | 38.6 | 0.00 | 0.00 | 0.00 | 30 | 1009.0 |
| 20260503225050 | 20 | 352 | 29.0 | 38.6 | 0.00 | 0.00 | 0.00 | 30 | 1008.9 |
| 20260503224546 | 20 | 352 | 22.5 | 38.6 | 0.00 | 0.00 | 0.00 | 30 | 1008.9 |
| 20260503224044 | 20 | 344 | 22.5 | 37.0 | 0.00 | 0.00 | 0.00 | 30 | 1009.2 |
| 20260503223807 | 20 | 5 | 25.7 | 33.8 | 0.00 | 0.00 | 0.00 | 31 | 1009.0 |
| 20260503223045 | 20 | 11 | 24.1 | 40.2 | 0.00 | 0.00 | 0.00 | 30 | 1009.2 |
| 20260503222537 | 20 | 18 | 25.7 | 43.5 | 0.00 | 0.00 | 0.00 | 29 | 1009.2 |
| 20260503222254 | 20 | 29 | 30.6 | 46.7 | 0.00 | 0.00 | 0.00 | 30 | 1009.0 |
| 20260503221538 | 20 | 347 | 16.1 | 46.7 | 0.00 | 0.00 | 0.00 | 30 | 1009.2 |
| 20260503221035 | 20 | 9 | 25.7 | 43.5 | 0.00 | 0.00 | 0.00 | 30 | 1009.2 |
| 20260503220752 | 20 | 5 | 20.9 | 35.4 | 0.00 | 0.00 | 0.00 | 29 | 1009.2 |
| 20260503220034 | 20 | 5 | 24.1 | 37.0 | 0.00 | 0.00 | 0.00 | 30 | 1009.3 |
| 20260503215530 | 20 | 17 | 19.3 | 41.8 | 0.00 | 0.00 | 0.00 | 30 | 1009.2 |
| 20260503215027 | 20 | 12 | 30.6 | 41.8 | 0.00 | 0.00 | 0.00 | 29 | 1009.3 |
| 20260503214530 | 20 | 5 | 24.1 | 37.0 | 0.00 | 0.00 | 0.00 | 30 | 1009.3 |
| 20260503214025 | 20 | 24 | 20.9 | 37.0 | 0.00 | 0.00 | 0.00 | 29 | 1009.2 |
| 20260503213519 | 20 | 5 | 25.7 | 35.4 | 0.00 | 0.00 | 0.00 | 29 | 1009.0 |
| 20260503213239 | 20 | 14 | 19.3 | 40.2 | 0.00 | 0.00 | 0.00 | 29 | 1009.2 |
| 20260503212513 | 21 | 5 | 20.9 | 40.2 | 0.00 | 0.00 | 0.00 | 28 | 1009.2 |
| 20260503212011 | 21 | 15 | 20.9 | 38.6 | 0.00 | 0.00 | 0.00 | 28 | 1009.3 |
| 20260503211510 | 21 | 11 | 29.0 | 38.6 | 0.00 | 0.00 | 0.00 | 27 | 1009.3 |
| 20260503211005 | 21 | 27 | 16.1 | 33.8 | 0.00 | 0.00 | 0.00 | 27 | 1009.2 |
| 20260503210503 | 22 | 18 | 17.7 | 33.8 | 0.00 | 0.00 | 0.00 | 25 | 1009.2 |
| 20260503210010 | 22 | 9 | 20.9 | 37.0 | 0.00 | 0.00 | 0.00 | 26 | 1009.2 |
| 20260503205503 | 22 | 19 | 29.0 | 37.0 | 0.00 | 0.00 | 0.00 | 25 | 1009.3 |
| 20260503205000 | 23 | 351 | 19.3 | 33.8 | 0.00 | 0.00 | 0.00 | 26 | 1009.3 |
| 20260503204457 | 23 | 5 | 25.7 | 33.8 | 0.00 | 0.00 | 0.00 | 25 | 1009.4 |
| 20260503203957 | 23 | 34 | 24.1 | 33.8 | 0.00 | 0.00 | 0.00 | 25 | 1009.4 |
| 20260503203450 | 22 | 327 | 19.3 | 35.4 | 0.00 | 0.00 | 0.00 | 27 | 1009.5 |
| 20260503202947 | 22 | 331 | 22.5 | 37.0 | 0.00 | 0.00 | 0.00 | 25 | 1009.5 |
| 20260503202446 | 22 | 350 | 19.3 | 37.0 | 0.00 | 0.00 | 0.00 | 25 | 1009.4 |
| 20260503201947 | 23 | 342 | 24.1 | 32.2 | 0.00 | 0.00 | 0.00 | 25 | 1009.5 |
| 20260503201443 | 23 | 26 | 24.1 | 35.4 | 0.00 | 0.00 | 0.00 | 25 | 1009.6 |
| 20260503200938 | 22 | 331 | 20.9 | 37.0 | 0.00 | 0.00 | 0.00 | 27 | 1009.8 |
| 20260503200711 | 22 | 348 | 24.1 | 37.0 | 0.00 | 0.00 | 0.00 | 26 | 1009.8 |
| 20260503200158 | 22 | 346 | 19.3 | 35.4 | 0.00 | 0.00 | 0.00 | 28 | 1009.8 |
| 20260503195429 | 22 | 336 | 19.3 | 33.8 | 0.00 | 0.00 | 0.00 | 26 | 1009.9 |
| 20260503194923 | 22 | 352 | 22.5 | 40.2 | 0.00 | 0.00 | 0.00 | 26 | 1010.0 |
| 20260503194902 | 22 | 323 | 22.5 | 40.2 | 0.00 | 0.00 | 0.00 | 27 | 1010.2 |
| 20260503194145 | 21 | 0 | 25.7 | 37.0 | 0.00 | 0.00 | 0.00 | 27 | 1010.2 |
| 20260503193420 | 22 | 0 | 20.9 | 38.6 | 0.00 | 0.00 | 0.00 | 26 | 1010.3 |
| 20260503193142 | 21 | 0 | 27.4 | 38.6 | 0.00 | 0.00 | 0.00 | 26 | 1010.2 |
| 20260503192640 | 21 | 15 | 22.5 | 30.6 | 0.00 | 0.00 | 0.00 | 26 | 1010.3 |
| 20260503191914 | 21 | 347 | 17.7 | 35.4 | 0.00 | 0.00 | 0.00 | 26 | 1010.4 |
| 20260503191407 | 21 | 319 | 29.0 | 35.4 | 0.00 | 0.00 | 0.00 | 27 | 1010.4 |
| 20260503190907 | 21 | 0 | 14.5 | 33.8 | 0.00 | 0.00 | 0.00 | 26 | 1010.5 |
| 20260503190403 | 21 | 331 | 19.3 | 37.0 | 0.00 | 0.00 | 0.00 | 26 | 1010.5 |
| 20260503185900 | 21 | 329 | 24.1 | 37.0 | 0.00 | 0.00 | 0.00 | 27 | 1010.7 |
| 20260503185356 | 21 | 327 | 16.1 | 32.2 | 0.00 | 0.00 | 0.00 | 29 | 1010.7 |
| 20260503184856 | 21 | 332 | 24.1 | 32.2 | 0.00 | 0.00 | 0.00 | 28 | 1010.8 |
| 20260503184351 | 20 | 352 | 25.7 | 30.6 | 0.00 | 0.00 | 0.00 | 28 | 1010.9 |
| 20260503183851 | 20 | 5 | 22.5 | 35.4 | 0.00 | 0.00 | 0.00 | 28 | 1011.0 |
| 20260503183350 | 20 | 30 | 24.1 | 49.9 | 0.00 | 0.00 | 0.00 | 28 | 1011.0 |
| 20260503183118 | 20 | 347 | 33.8 | 49.9 | 0.00 | 0.00 | 0.00 | 28 | 1011.2 |
| 20260503182344 | 20 | 333 | 29.0 | 37.0 | 0.00 | 0.00 | 0.00 | 29 | 1011.0 |
| 20260503181845 | 20 | 352 | 24.1 | 40.2 | 0.00 | 0.00 | 0.00 | 29 | 1011.2 |
| 20260503181339 | 20 | 5 | 30.6 | 40.2 | 0.00 | 0.00 | 0.00 | 28 | 1011.3 |
| 20260503180835 | 20 | 14 | 24.1 | 38.6 | 0.00 | 0.00 | 0.00 | 29 | 1011.3 |
| 20260503180331 | 20 | 0 | 22.5 | 37.0 | 0.00 | 0.00 | 0.00 | 29 | 1011.4 |
| 20260503175833 | 19 | 332 | 20.9 | 37.0 | 0.00 | 0.00 | 0.00 | 30 | 1011.5 |
| 20260503175328 | 19 | 15 | 24.1 | 38.6 | 0.00 | 0.00 | 0.00 | 29 | 1011.5 |
| 20260503174825 | 19 | 5 | 30.6 | 38.6 | 0.00 | 0.00 | 0.00 | 28 | 1011.6 |
| 20260503174323 | 20 | 26 | 17.7 | 38.6 | 0.00 | 0.00 | 0.00 | 31 | 1011.6 |
| 20260503173819 | 19 | 0 | 19.3 | 38.6 | 0.00 | 0.00 | 0.00 | 29 | 1011.6 |
| 20260503173320 | 19 | 345 | 25.7 | 41.8 | 0.00 | 0.00 | 0.00 | 30 | 1011.6 |
| 20260503172822 | 19 | 13 | 29.0 | 41.8 | 0.00 | 0.00 | 0.00 | 29 | 1011.6 |
| 20260503172318 | 19 | 352 | 20.9 | 35.4 | 0.00 | 0.00 | 0.00 | 29 | 1011.6 |
| 20260503171823 | 19 | 344 | 25.7 | 38.6 | 0.00 | 0.00 | 0.00 | 29 | 1011.6 |
| 20260503171319 | 18 | 351 | 27.4 | 38.6 | 0.00 | 0.00 | 0.00 | 30 | 1011.8 |
| 20260503170816 | 18 | 347 | 29.0 | 40.2 | 0.00 | 0.00 | 0.00 | 30 | 1011.7 |
| 20260503170534 | 18 | 351 | 25.7 | 40.2 | 0.00 | 0.00 | 0.00 | 30 | 1011.9 |
| 20260503150719 | 14 | 284 | 12.9 | 16.1 | 0.00 | 0.00 | 0.00 | 37 | 1012.0 |
| 20260503150222 | 14 | 286 | 12.9 | 16.1 | 0.00 | 0.00 | 0.00 | 37 | 1012.0 |
| 20260503140151 | 10 | 269 | 14.5 | 19.3 | 0.00 | 0.00 | 0.00 | 40 | 1012.0 |
| 20260503131133 | 8 | 293 | 12.9 | 20.9 | 0.00 | 0.00 | 0.00 | 44 | 1012.4 |
| 20260503130900 | 9 | 327 | 14.5 | 20.9 | 0.00 | 0.00 | 0.00 | 42 | 1012.4 |
| 20260503130130 | 8 | 287 | 16.1 | 20.9 | 0.00 | 0.00 | 0.00 | 41 | 1012.3 |
| 20260503120109 | 7 | 289 | 14.5 | 17.7 | 0.00 | 0.00 | 0.00 | 42 | 1012.3 |
| 20260503110544 | 7 | 280 | 14.5 | 17.7 | 0.00 | 0.00 | 0.00 | 43 | 1012.6 |
| 20260503090454 | 6 | 286 | 9.7 | 16.1 | 0.00 | 0.00 | 0.00 | 46 | 1012.7 |